Regional Weather Roundup
Issued by NWS

Home | Current Version | Previous Version | Graphics & Text | Print | Product List | Glossary On
Versions: 1 2 3 4 5 6 7 8 9 10 11 12 13 14 15 16 17 18 19 20 21 22 23 24 25 26 27 28 29 30 31 32 33 34 35 36 37 38 39 40 41 42 43 44 45 46 47 48 49 50
000
ASUS44 KMEG 020810
RWRTN
TENNESSEE HOURLY STATE WEATHER ROUNDUP
NATIONAL WEATHER SERVICE MEMPHIS TN
300 AM CDT TUE JUN 02 2015

TNZ002-004-019-021-049-052-054-088>092-020900-
WEST TENNESSEE

CITY           SKY/WX    TMP DP  RH WIND       PRES   REMARKS
MEMPHIS INTL   PTCLDY    61  57  88 NW3       30.07F FOG
NWS MEMPHIS      N/A     59 N/A N/A MISG        N/A
JACKSON        CLOUDY    64  60  87 N5        30.06F
DYERSBURG      CLOUDY    63  48  59 NE3       30.09S
PARIS          CLOUDY    57  57 100 CALM      30.08S
LEXINGTON      CLOUDY    63  59  88 CALM      30.05F
$$

TNZ008-025-027-028-033-062-065-066-020900-
NORTH MIDDLE TENNESSEE

CITY           SKY/WX    TMP DP  RH WIND       PRES   REMARKS
NASHVILLE      CLOUDY    62  60  93 N6        30.06F
CLARKSVILLE    CLOUDY    60  58  92 NE5       30.07S
SMYRNA         CLOUDY    62  60  93 NE10      30.06S
COOKEVILLE     CLOUDY    63  63 100 N5        30.03F
CROSSVILLE     CLOUDY    64  61  90 NE3       30.06F
$$

TNZ061-075-076-078-094-096-097-020900-
SOUTH MIDDLE TENNESSEE

CITY           SKY/WX    TMP DP  RH WIND       PRES   REMARKS
FAYETTEVILLE   CLOUDY   N/A N/A N/A MISG      30.04S
TULLAHOMA      CLOUDY    63  61  94 N5        30.05F
WINCHESTER     CLOUDY    64  63  94 CALM      30.04S
MCMINNVILLE    CLOUDY    64  64 100 N5        30.04F
COLUMBIA       MOCLDY    63  61  94 CALM      30.04S
SHELBYVILLE    CLOUDY    64  63  94 N6        30.05F
$$

TNZ017-018-042-046-047-020900-
NORTHEAST TENNESSEE

CITY           SKY/WX    TMP DP  RH WIND       PRES   REMARKS
TRI CITIES     MOCLDY    61  61 100 CALM      30.03S FOG
ELIZABETHTON   SUNNY     61  61 100 CALM      30.04R
$$

TNZ012-013-036-069-073-074-020900-
CENTRAL EAST TENNESSEE

CITY           SKY/WX    TMP DP  RH WIND       PRES   REMARKS
KNOXVILLE      MOCLDY    64  61  90 SW5       30.02S
OAK RIDGE      CLOUDY    66  63  90 CALM      30.04S
GATLINBURG     MOSUNNY   64  61  88 CALM      30.02S
MORRISTOWN     SUNNY     64  63  94 CALM      30.04R
$$

TNZ083-085-099-020900-
SOUTHEAST TENNESSEE

CITY           SKY/WX    TMP DP  RH WIND       PRES   REMARKS
CHATTANOOGA    CLEAR     66  62  87 NW3       30.01F
$$

SKY/WX REPORTED AS FAIR MEANS FEW OR NO CLOUDS BELOW
12 THOUSAND FEET.




USA.gov is the U.S. government's official web portal to all federal, state and local government web resources and services.